THY2TK LOWG-LTFM

Flight info

Callsign THY2TK
Flight time 1h 41m
Altitude 37000
Route GBG DCT DIMLO DCT NALOX DCT INVED DCT TIMUR L606 GASRU T390 RILEX
Aircraft B738/M-SDE2E3FGHIRWXY/LB1

Departure

Time 2026-04-26 08:34
Airport Graz Airport (LOWG)

Arrival

Time 2026-04-26 10:15
Airport İstanbul Airport (LTFM)
Time Latitude Longitude Altitude Speed Heading
2026-04-26 08:19 46.99726 15.44285 1111 ft 0 kts 169°
2026-04-26 08:26 46.99738 15.44281 1106 ft 4 kts 171°
2026-04-26 08:27 46.99765 15.44276 1110 ft 4 kts 176°
2026-04-26 08:27 46.99792 15.44277 1108 ft 4 kts 189°
2026-04-26 08:27 46.99815 15.44289 1109 ft 4 kts 229°
2026-04-26 08:27 46.99820 15.44302 1107 ft 1 kts 259°
2026-04-26 08:29 46.99820 15.44300 1107 ft 1 kts 259°
2026-04-26 08:29 46.99814 15.44256 1109 ft 9 kts 257°
2026-04-26 08:30 46.99744 15.44194 1114 ft 16 kts 180°
2026-04-26 08:30 46.99606 15.44229 1106 ft 24 kts 169°
2026-04-26 08:30 46.99463 15.44261 1111 ft 16 kts 193°
2026-04-26 08:30 46.99360 15.44133 1108 ft 23 kts 226°
2026-04-26 08:31 46.99241 15.43958 1105 ft 23 kts 211°
2026-04-26 08:31 46.99071 15.43976 1104 ft 28 kts 169°
2026-04-26 08:31 46.98934 15.44014 1101 ft 32 kts 169°
2026-04-26 08:31 46.98704 15.44079 1101 ft 35 kts 169°
2026-04-26 08:32 46.98454 15.44147 1098 ft 37 kts 169°
2026-04-26 08:32 46.98206 15.44215 1095 ft 36 kts 169°
2026-04-26 08:32 46.97972 15.44277 1092 ft 29 kts 170°
2026-04-26 08:32 46.97835 15.44360 1091 ft 11 kts 148°
2026-04-26 08:33 46.97815 15.44357 1091 ft 3 kts 207°
2026-04-26 08:33 46.97813 15.44331 1091 ft 3 kts 297°
2026-04-26 08:33 46.97835 15.44315 1091 ft 4 kts 349°
2026-04-26 08:33 46.97846 15.44312 1091 ft 0 kts 349°
2026-04-26 08:34 46.97939 15.44284 1092 ft 49 kts 348°
2026-04-26 08:34 46.98567 15.44112 1099 ft 131 kts 349°
2026-04-26 08:34 46.99680 15.43787 1266 ft 186 kts 350°
2026-04-26 08:34 47.00963 15.43449 2294 ft 191 kts 352°
2026-04-26 08:35 47.02334 15.43635 3070 ft 208 kts 21°
2026-04-26 08:35 47.03450 15.45039 3797 ft 229 kts 56°
2026-04-26 08:35 47.03761 15.47412 4245 ft 251 kts 97°
2026-04-26 08:35 47.03240 15.49931 4729 ft 270 kts 112°
2026-04-26 08:36 47.02363 15.52467 5327 ft 285 kts 118°
2026-04-26 08:36 47.01393 15.55003 6357 ft 285 kts 118°
2026-04-26 08:36 47.00396 15.57571 7160 ft 295 kts 118°
2026-04-26 08:36 46.99376 15.60216 7996 ft 301 kts 118°
2026-04-26 08:37 46.98345 15.62915 8840 ft 306 kts 117°
2026-04-26 08:37 46.97320 15.65614 9764 ft 309 kts 117°
2026-04-26 08:37 46.96264 15.68413 10465 ft 319 kts 117°
2026-04-26 08:37 46.95152 15.71371 10700 ft 345 kts 117°
2026-04-26 08:38 46.93958 15.74557 10912 ft 369 kts 117°
2026-04-26 08:38 46.92694 15.77932 11321 ft 384 kts 117°
2026-04-26 08:38 46.91397 15.81384 12050 ft 388 kts 117°
2026-04-26 08:38 46.90094 15.84853 12886 ft 390 kts 117°
2026-04-26 08:39 46.88780 15.88346 13643 ft 394 kts 118°
2026-04-26 08:39 46.87453 15.91875 14331 ft 399 kts 118°
2026-04-26 08:39 46.86105 15.95450 15009 ft 402 kts 117°
2026-04-26 08:39 46.84750 15.99042 15711 ft 405 kts 117°
2026-04-26 08:40 46.83386 16.02656 16396 ft 409 kts 117°
2026-04-26 08:40 46.82004 16.06312 17025 ft 413 kts 117°
2026-04-26 08:40 46.80612 16.09993 17699 ft 416 kts 117°
2026-04-26 08:40 46.79204 16.13707 18359 ft 419 kts 117°
2026-04-26 08:41 46.77784 16.17447 18919 ft 423 kts 117°
2026-04-26 08:41 46.76351 16.21216 19466 ft 426 kts 117°
2026-04-26 08:41 46.74909 16.25004 20024 ft 429 kts 117°
2026-04-26 08:41 46.73453 16.28826 20576 ft 432 kts 117°
2026-04-26 08:42 46.72006 16.32617 21105 ft 436 kts 117°
2026-04-26 08:42 46.70619 16.36554 21597 ft 437 kts 107°
2026-04-26 08:42 46.70029 16.40910 22104 ft 432 kts 87°
2026-04-26 08:42 46.70364 16.45211 22640 ft 427 kts 72°
2026-04-26 08:43 46.71436 16.49150 23101 ft 423 kts 56°
2026-04-26 08:43 46.73059 16.52719 23605 ft 423 kts 51°
2026-04-26 08:43 46.74770 16.56228 24015 ft 426 kts 51°
2026-04-26 08:43 46.76499 16.59758 24399 ft 429 kts 51°
2026-04-26 08:44 46.78223 16.63329 24798 ft 431 kts 52°
2026-04-26 08:44 46.79938 16.66936 25186 ft 434 kts 52°
2026-04-26 08:44 46.81653 16.70577 25553 ft 437 kts 52°
2026-04-26 08:44 46.83377 16.74253 25940 ft 439 kts 52°
2026-04-26 08:45 46.85038 16.78013 26291 ft 445 kts 60°
2026-04-26 08:45 46.86034 16.82335 26624 ft 455 kts 77°
2026-04-26 08:45 46.86161 16.86984 26989 ft 464 kts 94°
2026-04-26 08:45 46.85447 16.91622 27348 ft 469 kts 102°
2026-04-26 08:46 46.84565 16.96223 27636 ft 473 kts 103°
2026-04-26 08:46 46.83662 17.00862 27936 ft 476 kts 103°
2026-04-26 08:46 46.82762 17.05519 28292 ft 477 kts 103°
2026-04-26 08:46 46.81873 17.10190 28634 ft 478 kts 103°
2026-04-26 08:47 46.80992 17.14885 28909 ft 481 kts 102°
2026-04-26 08:47 46.80116 17.19603 29197 ft 483 kts 102°
2026-04-26 08:47 46.79239 17.24343 29517 ft 484 kts 102°
2026-04-26 08:47 46.78364 17.29076 30009 ft 482 kts 102°
2026-04-26 08:48 46.77493 17.33777 30437 ft 480 kts 102°
2026-04-26 08:48 46.76620 17.38475 30745 ft 480 kts 103°
2026-04-26 08:48 46.75744 17.43178 31012 ft 481 kts 103°
2026-04-26 08:48 46.74865 17.47879 31318 ft 481 kts 103°
2026-04-26 08:49 46.73985 17.52573 31640 ft 480 kts 103°
2026-04-26 08:49 46.73100 17.57278 31950 ft 480 kts 103°
2026-04-26 08:49 46.72216 17.61966 32245 ft 480 kts 103°
2026-04-26 08:49 46.71330 17.66651 32582 ft 479 kts 103°
2026-04-26 08:50 46.70454 17.71278 32879 ft 479 kts 103°
2026-04-26 08:50 46.69566 17.75956 33183 ft 479 kts 104°
2026-04-26 08:50 46.68678 17.80619 33524 ft 478 kts 104°
2026-04-26 08:50 46.67787 17.85286 33794 ft 478 kts 104°
2026-04-26 08:51 46.66001 17.94612 34419 ft 476 kts 104°
2026-04-26 08:51 46.65113 17.99235 34750 ft 474 kts 104°
2026-04-26 08:51 46.64223 18.03850 34961 ft 475 kts 104°
2026-04-26 08:52 46.63328 18.08487 35121 ft 477 kts 104°
2026-04-26 08:52 46.62430 18.13128 35341 ft 477 kts 104°
2026-04-26 08:52 46.61529 18.17765 35597 ft 476 kts 104°
2026-04-26 08:52 46.60629 18.22391 35857 ft 475 kts 104°
2026-04-26 08:53 46.59728 18.27009 36086 ft 475 kts 104°
2026-04-26 08:53 46.58826 18.31624 36303 ft 475 kts 104°
2026-04-26 08:53 46.57922 18.36238 36530 ft 475 kts 104°
2026-04-26 08:53 46.57015 18.40852 36738 ft 475 kts 104°
2026-04-26 08:54 46.56106 18.45467 36952 ft 474 kts 104°
2026-04-26 08:54 46.55196 18.50078 37116 ft 475 kts 104°
2026-04-26 08:54 46.54282 18.54701 37102 ft 477 kts 104°
2026-04-26 08:55 46.52445 18.63951 37107 ft 476 kts 104°
2026-04-26 08:55 46.50608 18.73157 37107 ft 474 kts 104°
2026-04-26 08:56 46.48772 18.82319 37104 ft 472 kts 104°
2026-04-26 08:56 46.46930 18.91464 37100 ft 472 kts 104°
2026-04-26 08:57 46.45095 19.00537 37096 ft 472 kts 104°
2026-04-26 08:57 46.43237 19.09680 37096 ft 473 kts 104°
2026-04-26 08:58 46.41368 19.18835 37095 ft 475 kts 104°
2026-04-26 08:58 46.39485 19.28019 37087 ft 476 kts 104°
2026-04-26 08:59 46.37587 19.37229 37082 ft 478 kts 104°
2026-04-26 08:59 46.35675 19.46467 37082 ft 479 kts 104°
2026-04-26 09:00 46.33751 19.55720 37076 ft 481 kts 104°
2026-04-26 09:00 46.31814 19.64994 37070 ft 482 kts 105°
2026-04-26 09:01 46.29868 19.74266 37075 ft 482 kts 105°
2026-04-26 09:01 46.27915 19.83529 37072 ft 482 kts 105°
2026-04-26 09:02 46.25957 19.92774 37068 ft 481 kts 105°
2026-04-26 09:02 46.23994 20.02003 37063 ft 480 kts 105°
2026-04-26 09:03 46.22026 20.11216 37064 ft 479 kts 105°
2026-04-26 09:03 46.20056 20.20396 37063 ft 478 kts 105°
2026-04-26 09:04 46.18082 20.29564 37059 ft 478 kts 105°
2026-04-26 09:04 46.15866 20.38598 37048 ft 479 kts 115°
2026-04-26 09:05 46.12162 20.46478 37057 ft 479 kts 130°
2026-04-26 09:05 46.07747 20.53684 37045 ft 480 kts 131°
2026-04-26 09:06 46.03316 20.60864 37052 ft 479 kts 131°
2026-04-26 09:06 45.98917 20.68069 37043 ft 479 kts 131°
2026-04-26 09:07 45.94535 20.75288 37041 ft 479 kts 131°
2026-04-26 09:07 45.90156 20.82495 37042 ft 479 kts 131°
2026-04-26 09:08 45.85774 20.89684 37037 ft 478 kts 131°
2026-04-26 09:08 45.81388 20.96859 37029 ft 478 kts 131°
2026-04-26 09:09 45.77004 21.04010 37030 ft 477 kts 131°
2026-04-26 09:09 45.72620 21.11142 37024 ft 477 kts 131°
2026-04-26 09:10 45.68265 21.18211 37024 ft 476 kts 131°
2026-04-26 09:10 45.63880 21.25309 37027 ft 476 kts 131°
2026-04-26 09:11 45.59489 21.32398 37030 ft 476 kts 131°
2026-04-26 09:11 45.55098 21.39469 37030 ft 476 kts 131°
2026-04-26 09:12 45.50705 21.46526 37026 ft 476 kts 131°
2026-04-26 09:12 45.46308 21.53572 37033 ft 476 kts 131°
2026-04-26 09:13 45.41907 21.60605 37039 ft 475 kts 131°
2026-04-26 09:13 45.37506 21.67621 37038 ft 475 kts 131°
2026-04-26 09:14 45.33098 21.74629 37037 ft 475 kts 131°
2026-04-26 09:14 45.28677 21.81642 37033 ft 476 kts 131°
2026-04-26 09:15 45.24252 21.88642 37040 ft 476 kts 131°
2026-04-26 09:15 45.19816 21.95643 37032 ft 477 kts 131°
2026-04-26 09:16 45.15402 22.02590 37034 ft 478 kts 131°
2026-04-26 09:16 45.10947 22.09586 37029 ft 478 kts 131°
2026-04-26 09:17 45.06483 22.16578 37023 ft 479 kts 131°
2026-04-26 09:17 45.02007 22.23570 37014 ft 480 kts 132°
2026-04-26 09:18 44.97525 22.30554 37015 ft 480 kts 132°
2026-04-26 09:18 44.93027 22.37547 37008 ft 481 kts 132°
2026-04-26 09:19 44.89316 22.43303 36986 ft 482 kts 132°
2026-04-26 09:19 44.84838 22.50232 36997 ft 483 kts 132°
2026-04-26 09:20 44.80304 22.57230 36986 ft 484 kts 132°
2026-04-26 09:20 44.75766 22.64216 36981 ft 484 kts 132°
2026-04-26 09:21 44.71255 22.71144 36976 ft 483 kts 132°
2026-04-26 09:21 44.66721 22.78090 36979 ft 482 kts 132°
2026-04-26 09:22 44.62197 22.85004 36979 ft 480 kts 133°
2026-04-26 09:22 44.57675 22.91896 36976 ft 479 kts 133°
2026-04-26 09:23 44.53168 22.98750 36979 ft 478 kts 133°
2026-04-26 09:23 44.48664 23.05583 36982 ft 477 kts 133°
2026-04-26 09:24 44.44160 23.12397 36986 ft 477 kts 133°
2026-04-26 09:24 44.39659 23.19191 36983 ft 477 kts 133°
2026-04-26 09:25 44.35140 23.25997 36984 ft 478 kts 133°
2026-04-26 09:25 44.30613 23.32797 36983 ft 479 kts 133°
2026-04-26 09:26 44.26067 23.39610 36983 ft 480 kts 133°
2026-04-26 09:26 44.21508 23.46425 36979 ft 481 kts 133°
2026-04-26 09:27 44.16970 23.53192 36985 ft 482 kts 134°
2026-04-26 09:27 44.12385 23.60013 36977 ft 482 kts 134°
2026-04-26 09:28 44.07788 23.66834 36978 ft 483 kts 134°
2026-04-26 09:28 44.03186 23.73648 36977 ft 483 kts 134°
2026-04-26 09:29 43.98574 23.80459 36978 ft 484 kts 134°
2026-04-26 09:29 43.93956 23.87262 36980 ft 484 kts 135°
2026-04-26 09:30 43.89332 23.94058 36976 ft 484 kts 135°
2026-04-26 09:30 43.84707 24.00840 36977 ft 484 kts 135°
2026-04-26 09:31 43.80075 24.07615 36982 ft 484 kts 135°
2026-04-26 09:31 43.75440 24.14379 36984 ft 484 kts 135°
2026-04-26 09:32 43.70833 24.21089 36978 ft 484 kts 135°
2026-04-26 09:32 43.66145 24.27753 36983 ft 484 kts 137°
2026-04-26 09:33 43.61287 24.34173 36981 ft 483 kts 139°
2026-04-26 09:33 43.56405 24.40565 36987 ft 484 kts 139°
2026-04-26 09:34 43.51545 24.46979 36983 ft 484 kts 139°
2026-04-26 09:34 43.46692 24.53404 36989 ft 484 kts 139°
2026-04-26 09:35 43.41831 24.59830 36985 ft 484 kts 139°
2026-04-26 09:35 43.36965 24.66243 36989 ft 485 kts 139°
2026-04-26 09:36 43.32091 24.72649 36986 ft 485 kts 139°
2026-04-26 09:36 43.27210 24.79051 36986 ft 485 kts 139°
2026-04-26 09:37 43.22327 24.85441 36989 ft 485 kts 139°
2026-04-26 09:37 43.17435 24.91829 36990 ft 486 kts 139°
2026-04-26 09:38 43.12541 24.98205 36989 ft 485 kts 139°
2026-04-26 09:38 43.07648 25.04568 36988 ft 485 kts 139°
2026-04-26 09:39 43.02755 25.10923 37000 ft 484 kts 139°
2026-04-26 09:39 42.97895 25.17222 36983 ft 484 kts 139°
2026-04-26 09:40 42.93002 25.23549 36992 ft 484 kts 139°
2026-04-26 09:40 42.88107 25.29865 36980 ft 484 kts 139°
2026-04-26 09:41 42.83207 25.36172 36984 ft 484 kts 139°
2026-04-26 09:41 42.78308 25.42464 36981 ft 484 kts 139°
2026-04-26 09:42 42.73411 25.48739 36974 ft 483 kts 139°
2026-04-26 09:42 42.68515 25.54999 36980 ft 483 kts 139°
2026-04-26 09:43 42.63618 25.61246 36987 ft 483 kts 139°
2026-04-26 09:43 42.58716 25.67484 36974 ft 483 kts 139°
2026-04-26 09:44 42.53812 25.73712 36985 ft 483 kts 139°
2026-04-26 09:44 42.48905 25.79929 36979 ft 483 kts 139°
2026-04-26 09:45 42.43995 25.86136 36982 ft 483 kts 139°
2026-04-26 09:45 42.39083 25.92333 36984 ft 483 kts 139°
2026-04-26 09:46 42.34198 25.98481 36990 ft 483 kts 139°
2026-04-26 09:46 42.29275 26.04666 36988 ft 483 kts 139°
2026-04-26 09:47 42.24613 26.11182 36985 ft 484 kts 127°
2026-04-26 09:47 42.21165 26.18984 36994 ft 485 kts 118°
2026-04-26 09:48 42.17935 26.26981 36988 ft 485 kts 119°
2026-04-26 09:48 42.14704 26.34829 36970 ft 466 kts 119°
2026-04-26 09:48 42.13138 26.38582 36968 ft 452 kts 120°
2026-04-26 09:49 42.11615 26.42211 36932 ft 440 kts 120°
2026-04-26 09:49 42.10121 26.45765 36684 ft 433 kts 120°
2026-04-26 09:49 42.08640 26.49282 36271 ft 431 kts 120°
2026-04-26 09:49 42.07149 26.52823 35396 ft 441 kts 120°
2026-04-26 09:50 42.05610 26.56473 34325 ft 456 kts 120°
2026-04-26 09:50 42.04020 26.60243 33167 ft 470 kts 120°
2026-04-26 09:50 42.02390 26.64102 32293 ft 475 kts 120°
2026-04-26 09:50 42.00873 26.67946 32288 ft 460 kts 112°
2026-04-26 09:51 41.99905 26.72046 32197 ft 464 kts 103°
2026-04-26 09:51 41.98818 26.76252 31367 ft 489 kts 117°
2026-04-26 09:51 41.96974 26.80075 31098 ft 486 kts 128°
2026-04-26 09:51 41.94915 26.83662 30255 ft 487 kts 128°
2026-04-26 09:52 41.92885 26.87300 29367 ft 487 kts 127°
2026-04-26 09:52 41.88877 26.94548 28031 ft 476 kts 124°
2026-04-26 09:52 41.87126 26.98267 27556 ft 468 kts 121°
2026-04-26 09:53 41.85499 27.02023 26987 ft 463 kts 120°
2026-04-26 09:53 41.83907 27.05701 26847 ft 448 kts 121°
2026-04-26 09:53 41.82330 27.09230 26636 ft 436 kts 122°
2026-04-26 09:53 41.80767 27.12647 26390 ft 425 kts 123°
2026-04-26 09:54 41.79134 27.15939 25895 ft 422 kts 125°
2026-04-26 09:54 41.77457 27.19152 25437 ft 419 kts 126°
2026-04-26 09:54 41.75809 27.22289 25432 ft 404 kts 127°
2026-04-26 09:54 41.74068 27.25229 24921 ft 404 kts 131°
2026-04-26 09:55 41.72236 27.28025 24217 ft 409 kts 133°
2026-04-26 09:55 41.70315 27.30855 23593 ft 412 kts 134°
2026-04-26 09:55 41.68383 27.33685 23068 ft 409 kts 133°
2026-04-26 09:55 41.66477 27.36494 22626 ft 404 kts 133°
2026-04-26 09:56 41.64605 27.39275 22163 ft 400 kts 133°
2026-04-26 09:56 41.62756 27.42037 21674 ft 398 kts 133°
2026-04-26 09:56 41.60923 27.44786 21184 ft 395 kts 133°
2026-04-26 09:56 41.59102 27.47520 20720 ft 392 kts 133°
2026-04-26 09:57 41.57296 27.50234 20247 ft 390 kts 133°
2026-04-26 09:57 41.55523 27.52896 19790 ft 388 kts 133°
2026-04-26 09:57 41.53735 27.55580 19349 ft 385 kts 132°
2026-04-26 09:57 41.51959 27.58243 18906 ft 383 kts 132°
2026-04-26 09:58 41.50194 27.60887 18465 ft 381 kts 133°
2026-04-26 09:58 41.48438 27.63515 18019 ft 378 kts 132°
2026-04-26 09:58 41.46692 27.66126 17540 ft 376 kts 133°
2026-04-26 09:58 41.44955 27.68721 17071 ft 374 kts 132°
2026-04-26 09:59 41.43226 27.71301 16622 ft 372 kts 133°
2026-04-26 09:59 41.42064 27.73034 16324 ft 370 kts 133°
2026-04-26 09:59 41.39798 27.76412 15732 ft 368 kts 133°
2026-04-26 09:59 41.38100 27.78941 15314 ft 365 kts 133°
2026-04-26 10:00 41.36412 27.81452 14904 ft 363 kts 133°
2026-04-26 10:00 41.34730 27.83949 14481 ft 361 kts 133°
2026-04-26 10:00 41.33060 27.86430 14103 ft 359 kts 133°
2026-04-26 10:00 41.31396 27.88903 13686 ft 357 kts 133°
2026-04-26 10:01 41.29741 27.91355 13250 ft 355 kts 133°
2026-04-26 10:01 41.28094 27.93795 12833 ft 353 kts 133°
2026-04-26 10:01 41.26467 27.96203 12606 ft 345 kts 133°
2026-04-26 10:01 41.24893 27.98531 12520 ft 331 kts 133°
2026-04-26 10:02 41.23394 28.00748 12364 ft 315 kts 133°
2026-04-26 10:02 41.21951 28.02881 12036 ft 306 kts 134°
2026-04-26 10:02 41.20542 28.04960 11700 ft 300 kts 133°
2026-04-26 10:02 41.19155 28.07005 11289 ft 297 kts 133°
2026-04-26 10:03 41.17774 28.09041 10856 ft 296 kts 134°
2026-04-26 10:03 41.16400 28.11057 10444 ft 293 kts 134°
2026-04-26 10:03 41.15499 28.12383 10175 ft 292 kts 134°
2026-04-26 10:03 41.14144 28.14379 9754 ft 290 kts 134°
2026-04-26 10:04 41.12795 28.16360 9285 ft 289 kts 134°
2026-04-26 10:04 41.11446 28.18343 8944 ft 288 kts 133°
2026-04-26 10:04 41.10122 28.20293 8558 ft 283 kts 133°
2026-04-26 10:04 41.08797 28.22235 8071 ft 284 kts 133°
2026-04-26 10:05 41.07470 28.24179 7698 ft 285 kts 133°
2026-04-26 10:05 41.06146 28.26113 7578 ft 281 kts 134°
2026-04-26 10:05 41.04832 28.28015 7305 ft 280 kts 133°
2026-04-26 10:05 41.03530 28.29932 7017 ft 279 kts 132°
2026-04-26 10:06 41.02232 28.31842 6742 ft 278 kts 132°
2026-04-26 10:06 41.00937 28.33741 6468 ft 277 kts 132°
2026-04-26 10:06 40.99909 28.35857 6200 ft 274 kts 104°
2026-04-26 10:06 40.99832 28.38327 5970 ft 269 kts 82°
2026-04-26 10:07 41.00011 28.40795 5730 ft 270 kts 83°
2026-04-26 10:07 41.00177 28.43268 5476 ft 269 kts 84°
2026-04-26 10:07 41.00330 28.45725 5222 ft 267 kts 84°
2026-04-26 10:07 41.00470 28.48124 5049 ft 261 kts 84°
2026-04-26 10:08 41.00601 28.50474 5008 ft 251 kts 85°
2026-04-26 10:08 41.00724 28.52757 4995 ft 247 kts 84°
2026-04-26 10:08 41.00845 28.54994 4997 ft 241 kts 84°
2026-04-26 10:08 41.00960 28.57178 4978 ft 232 kts 85°
2026-04-26 10:09 41.01069 28.59293 4993 ft 230 kts 84°
2026-04-26 10:09 41.01178 28.61401 5012 ft 230 kts 84°
2026-04-26 10:09 41.01285 28.63518 5004 ft 230 kts 85°
2026-04-26 10:09 41.01392 28.65633 4998 ft 230 kts 85°
2026-04-26 10:10 41.01499 28.67741 4996 ft 230 kts 85°
2026-04-26 10:10 41.01611 28.69852 4996 ft 229 kts 82°
2026-04-26 10:10 41.02157 28.71773 4981 ft 224 kts 48°
2026-04-26 10:10 41.03461 28.72858 4700 ft 225 kts
2026-04-26 10:11 41.05011 28.73086 4414 ft 226 kts
2026-04-26 10:11 41.06587 28.73148 4120 ft 228 kts 359°
2026-04-26 10:11 41.08183 28.73132 3827 ft 232 kts 358°
2026-04-26 10:11 41.09807 28.73103 3524 ft 236 kts 358°
2026-04-26 10:12 41.11461 28.73070 3189 ft 238 kts 358°
2026-04-26 10:12 41.13086 28.73033 2892 ft 228 kts 358°
2026-04-26 10:12 41.14645 28.73022 2570 ft 216 kts 357°
2026-04-26 10:12 41.16092 28.72975 2278 ft 200 kts 358°
2026-04-26 10:13 41.17443 28.72945 1990 ft 188 kts 358°
2026-04-26 10:13 41.18664 28.72921 1815 ft 171 kts 358°
2026-04-26 10:13 41.19826 28.72902 1564 ft 160 kts 358°
2026-04-26 10:13 41.20882 28.72880 1358 ft 147 kts 357°
2026-04-26 10:14 41.21913 28.72858 1192 ft 148 kts 356°
2026-04-26 10:14 41.22952 28.72841 982 ft 150 kts 359°
2026-04-26 10:14 41.23989 28.72828 786 ft 148 kts 354°
2026-04-26 10:14 41.25025 28.72795 594 ft 150 kts 357°
2026-04-26 10:15 41.26079 28.72781 405 ft 152 kts 356°
2026-04-26 10:15 41.27122 28.72755 330 ft 140 kts 357°
2026-04-26 10:15 41.27847 28.72742 332 ft 59 kts 359°
2026-04-26 10:15 41.28102 28.72860 333 ft 19 kts 30°
2026-04-26 10:16 41.28117 28.72954 332 ft 10 kts 133°
2026-04-26 10:16 41.28050 28.72964 330 ft 10 kts 184°
2026-04-26 10:16 41.27982 28.72963 333 ft 10 kts 179°
2026-04-26 10:16 41.27928 28.72964 333 ft 0 kts 179°
2026-04-26 10:17 41.27927 28.72964 333 ft 0 kts 179°
2026-04-26 10:17 41.27919 28.72964 331 ft 3 kts 178°
2026-04-26 10:18 41.27876 28.72966 330 ft 9 kts 178°
2026-04-26 10:18 41.27790 28.72969 330 ft 15 kts 179°
2026-04-26 10:18 41.27667 28.72972 331 ft 20 kts 179°
2026-04-26 10:18 41.27524 28.72975 333 ft 21 kts 179°
2026-04-26 10:19 41.27399 28.73022 331 ft 19 kts 114°
2026-04-26 10:19 41.27394 28.73198 333 ft 19 kts 88°
2026-04-26 10:19 41.27398 28.73369 333 ft 18 kts 88°
2026-04-26 10:19 41.27398 28.73534 333 ft 18 kts 90°
2026-04-26 10:20 41.27399 28.73693 333 ft 17 kts 88°
2026-04-26 10:20 41.27401 28.73795 333 ft 17 kts 89°
2026-04-26 10:20 41.27404 28.73994 333 ft 16 kts 89°
2026-04-26 10:20 41.27407 28.74136 330 ft 15 kts 89°
2026-04-26 10:21 41.27408 28.74280 332 ft 16 kts 89°
2026-04-26 10:21 41.27410 28.74435 330 ft 18 kts 89°
2026-04-26 10:21 41.27381 28.74587 333 ft 18 kts 156°
2026-04-26 10:21 41.27259 28.74601 333 ft 17 kts 178°
2026-04-26 10:22 41.27140 28.74604 332 ft 17 kts 179°
2026-04-26 10:22 41.27026 28.74607 332 ft 16 kts 179°
2026-04-26 10:22 41.26915 28.74609 329 ft 16 kts 179°
2026-04-26 10:22 41.26810 28.74612 332 ft 15 kts 179°
2026-04-26 10:23 41.26708 28.74614 329 ft 14 kts 179°
2026-04-26 10:23 41.26643 28.74672 333 ft 13 kts 101°
2026-04-26 10:23 41.26642 28.74742 333 ft 0 kts 89°